Theta_e
346 346 350 351 353 354 358 357 357 357 356 356 355 354 354 353 354 354 354 353 350 349 350 353 356 355 352 350 348 343 340 338 334 332 328 326 326 325 325 325 324 324 326
342 338 337 337 342 347 350 352 355 354 353 352 352 355 354 352 354 356 354 354 351 350 350 352 355 357 355 352 349 346 342 338 335 333 329 326 325 324 323 325 324 325 323
338 339 334 335 336 341 343 345 349 352 353 352 351 350 350 350 350 351 354 354 353 349 350 351 354 355 356 355 352 348 344 340 336 333 329 326 324 323 323 323 324 323 323
336 335 332 334 338 339 340 341 340 337 341 343 343 344 343 344 347 351 351 349 351 351 350 351 352 354 356 357 355 352 347 342 337 334 328 324 322 322 322 323 322 322 322
329 331 329 330 334 332 335 339 340 344 341 337 337 339 341 342 345 346 350 350 351 352 352 352 351 352 354 356 356 354 350 344 337 333 326 321 320 321 321 322 321 320 321
329 330 331 331 330 328 328 333 339 341 343 343 338 335 338 341 343 346 349 348 349 351 353 354 357 356 351 354 354 352 351 348 336 329 324 320 321 321 320 320 321 321 321
330 333 328 330 330 329 330 331 329 331 333 339 337 334 332 339 344 344 346 347 347 350 351 353 354 357 357 351 349 350 351 347 333 326 322 317 320 319 320 319 320 319 320
332 331 332 329 332 326 331 329 330 324 325 337 334 334 324 327 338 344 345 345 346 347 348 349 352 350 353 355 352 347 339 335 331 324 319 320 319 320 319 319 319 319 319
331 333 332 330 330 328 324 328 327 326 320 325 335 332 325 320 328 340 343 342 347 343 344 342 347 349 349 346 341 339 335 334 329 325 320 318 318 318 317 318 318 318 319
331 331 333 331 331 326 327 325 325 325 325 320 323 330 333 333 327 322 330 340 344 344 337 335 334 332 335 337 336 335 332 327 326 322 319 320 319 318 318 318 318 317 318
332 331 331 331 330 327 328 327 326 327 321 320 319 320 325 327 330 327 325 326 339 335 330 329 329 327 325 328 325 326 324 320 321 320 318 317 316 317 316 316 316 316 317
324 330 330 330 330 329 328 326 326 325 324 323 321 320 318 318 320 325 325 328 328 331 327 325 323 322 321 320 321 321 319 317 316 315 314 314 313 313 312 313 315 315 315
320 329 330 330 328 329 328 327 326 325 324 322 323 319 319 318 320 321 323 325 327 331 325 320 320 320 319 318 317 318 317 314 313 312 311 310 310 310 311 311 311 312 312
319 327 326 329 330 329 328 326 323 322 323 321 322 323 320 318 318 319 320 322 323 323 317 316 318 317 316 315 317 316 314 313 311 310 309 309 309 308 308 308 308 308 310
317 320 324 326 328 328 326 325 321 321 322 322 322 322 320 319 318 319 321 322 322 322 320 313 312 316 314 316 315 313 312 312 310 309 308 307 307 307 307 306 307 307 308
318 317 319 323 324 325 323 323 320 321 320 319 318 320 321 319 319 319 321 323 324 329 324 319 313 313 314 313 314 312 312 311 310 308 307 306 306 306 306 306 306 306 306
315 315 315 319 321 320 320 318 319 318 317 318 319 319 319 321 318 319 320 322 324 328 324 313 314 313 311 310 312 313 311 309 309 308 307 306 305 305 305 305 304 304 303
313 313 314 316 315 315 316 316 315 316 315 315 316 317 317 317 319 321 321 323 324 331 324 312 311 309 308 310 311 309 309 308 309 307 306 305 305 305 304 304 303 302 302
311 310 311 311 312 311 313 314 313 314 315 315 316 315 316 317 317 319 321 322 324 332 320 311 308 309 308 309 307 309 309 308 308 307 305 305 304 304 304 304 303 302 301
308 309 310 308 307 308 310 311 312 312 314 314 315 316 316 316 317 319 321 323 328 326 315 311 308 306 306 307 307 307 305 307 304 305 305 305 306 305 304 304 304 303 301
308 308 308 308 308 306 308 310 310 311 312 313 314 314 315 316 316 317 319 323 329 318 312 309 306 304 305 303 303 305 304 302 304 309 308 309 307 307 306 304 302 302 300
306 306 306 306 306 307 304 304 307 310 310 311 311 312 313 313 314 312 313 313 315 316 311 308 306 304 305 303 306 305 303 302 302 311 309 307 308 306 305 303 300 300 299
303 304 305 305 305 307 302 301 304 308 308 309 310 311 310 313 315 317 313 311 313 312 313 313 311 310 307 306 305 306 304 302 307 309 310 305 308 306 307 302 300 299 298
302 302 304 305 305 307 302 300 301 308 308 309 310 311 313 314 316 319 321 322 322 316 316 318 320 313 309 309 308 306 305 309 312 311 313 304 309 306 306 302 300 299 299
301 302 304 305 305 306 301 299 302 307 307 308 310 314 314 315 309 306 319 317 316 315 312 310 308 304 302 303 307 306 306 308 307 308 311 309 308 306 305 305 306 301 299
303 304 304 305 305 306 302 298 301 305 305 308 311 313 307 311 304 304 317 318 313 311 309 307 305 302 304 305 305 313 312 309 308 305 312 309 307 307 305 306 303 303 304
Wind_Speed
3 4 3 5 5 7 7 7 7 6 8 10 10 10 10 9 10 7 6 14 14 16 19 20 21 21 22 21 20 20 19 16 14 12 10 8 7 5 5 5 5 5 5
2 2 3 5 5 5 6 7 8 8 8 9 9 9 10 10 9 9 8 6 17 17 18 20 21 22 22 23 22 22 21 19 17 14 12 10 7 5 4 5 6 5 7
4 5 4 4 5 6 8 8 8 8 9 10 11 10 10 11 10 10 9 9 9 19 19 20 21 22 23 24 25 24 22 22 21 18 14 8 6 5 5 4 5 7 7
5 3 4 5 7 7 6 5 8 9 10 10 10 9 10 10 10 10 10 9 9 10 15 19 20 21 23 24 25 26 25 23 22 19 13 7 4 4 5 4 5 6 9
5 4 4 4 6 5 6 7 6 7 8 10 11 11 10 10 10 10 9 10 10 9 9 9 18 18 21 23 25 25 25 24 22 16 10 2 5 5 4 4 6 7 8
4 4 3 4 5 4 4 6 7 8 7 8 10 11 12 10 8 8 10 8 9 9 9 10 5 10 19 20 24 24 24 25 22 19 13 9 6 5 4 4 6 8 9
3 3 4 3 5 4 5 6 7 7 7 7 8 10 11 12 8 10 7 7 8 7 7 7 7 6 6 19 21 23 25 10 20 16 12 5 2 3 5 4 6 7 10
6 5 4 3 2 5 3 5 6 7 7 3 5 9 11 10 8 7 6 6 6 5 4 5 7 8 7 5 8 6 21 22 19 15 10 10 4 3 4 4 7 8 9
8 7 7 6 5 5 3 3 4 5 8 7 3 3 7 9 11 4 6 5 3 5 6 5 7 7 6 4 5 15 21 20 20 18 13 9 3 0 3 6 6 7 9
12 12 10 9 8 6 3 4 1 4 4 8 6 4 0 6 6 10 8 5 3 1 6 5 4 5 5 4 12 15 21 19 16 14 13 11 5 7 5 8 8 8 9
15 14 14 12 10 9 6 5 4 2 4 5 7 6 7 6 6 6 11 9 4 3 4 5 4 4 7 8 10 15 20 17 14 14 12 9 7 7 8 9 10 9 9
10 11 13 14 12 11 8 7 4 5 3 4 6 7 8 8 6 6 7 11 12 3 3 4 3 4 6 9 15 21 20 17 16 12 10 8 8 7 6 7 9 10 9
11 11 11 14 13 13 10 8 7 4 5 5 6 7 7 7 8 9 7 10 9 2 1 3 3 4 6 7 10 17 20 17 14 12 8 7 6 7 8 9 10 9 9
13 13 14 13 16 16 12 9 8 7 4 6 7 7 8 8 8 9 10 8 9 4 2 3 2 4 5 7 12 20 11 16 13 10 9 9 9 7 8 9 8 8 10
14 15 14 13 13 14 14 10 9 8 7 7 7 8 9 8 9 9 9 11 9 10 6 5 3 5 6 7 11 9 10 15 13 12 10 10 9 9 8 8 10 11 11
17 17 18 14 12 12 13 11 9 10 10 8 7 9 10 9 10 10 10 11 11 8 8 4 2 8 9 8 11 11 11 14 14 12 11 10 9 9 9 10 11 12 12
18 19 19 17 13 12 10 10 12 12 12 12 11 11 13 12 11 11 10 11 9 9 7 2 3 9 11 11 9 8 10 9 9 12 11 10 9 8 11 11 12 13 13
18 15 17 17 15 14 12 12 14 13 14 13 13 13 14 11 14 12 11 12 11 8 3 7 9 8 12 12 9 11 8 7 9 11 11 11 9 11 11 12 12 13 16
15 14 17 16 13 13 12 13 15 15 15 15 14 14 15 14 14 12 11 11 10 6 6 8 7 6 7 9 12 9 10 8 7 10 10 11 11 11 12 14 15 16 15
15 16 16 14 12 13 15 16 16 16 16 15 15 15 15 15 14 13 13 13 11 5 8 8 9 10 9 7 6 10 9 6 4 4 7 6 6 8 14 15 16 17 15
17 14 16 15 14 14 14 15 17 17 15 16 15 15 16 16 16 13 9 9 10 7 8 10 9 9 9 9 10 9 8 6 3 5 5 4 4 6 8 13 14 17 17
16 15 16 15 13 10 12 12 15 14 13 14 14 15 13 14 15 15 14 15 11 11 10 9 9 14 15 14 8 8 9 6 4 6 6 5 4 5 7 9 15 16 17
13 14 13 13 15 16 10 10 11 13 14 15 16 15 11 12 15 14 14 19 14 14 21 15 16 16 15 15 14 12 10 7 6 8 7 5 5 6 7 8 14 15 19
12 11 13 13 12 12 12 12 12 15 16 18 17 13 13 13 13 12 13 14 12 14 15 12 15 14 11 13 13 12 13 9 10 8 6 6 5 7 6 8 11 16 18
10 11 12 13 13 15 12 16 15 16 16 17 16 16 14 16 12 12 10 8 9 10 8 9 14 13 18 20 16 10 9 10 9 7 5 6 6 8 6 7 7 10 13
12 10 12 14 16 15 15 12 12 11 13 12 13 14 15 16 12 14 9 12 11 10 13 14 14 17 19 20 21 14 9 9 9 8 5 4 4 2 3 7 8 7 4
Wind_Direction
343 306 321 284 305 299 272 254 253 254 247 235 243 241 251 256 267 272 271 171 193 213 227 227 225 219 215 218 211 208 210 217 212 210 211 222 230 247 269 281 292 310 323
10 310 308 317 303 307 298 293 277 274 258 261 259 256 261 266 250 254 261 252 191 209 223 230 228 226 218 216 212 210 208 208 213 210 212 214 234 242 252 285 298 323 327
31 327 359 329 344 324 298 296 277 264 260 258 255 264 265 255 257 252 251 255 244 201 212 225 229 229 224 217 214 212 207 206 209 205 206 212 228 250 270 291 308 316 327
25 355 358 6 356 318 317 318 312 297 288 277 271 272 271 264 258 259 263 266 263 275 197 214 222 228 226 220 216 212 210 206 205 201 189 187 235 268 294 305 319 321 322
36 357 15 17 338 335 332 332 323 312 302 286 281 273 259 259 266 262 276 284 274 272 282 207 205 221 232 230 221 218 214 211 201 189 128 30 357 302 285 323 315 327 317
30 335 29 358 316 323 329 340 327 323 294 286 295 292 295 295 273 265 264 265 279 278 274 274 230 234 225 240 234 229 225 215 180 144 127 113 277 298 325 337 323 329 324
353 333 326 329 313 329 347 322 316 308 307 319 302 278 264 246 255 271 263 259 263 257 290 287 280 264 263 234 243 237 236 227 120 113 120 121 269 304 305 329 340 329 327
285 272 293 293 319 312 323 329 331 314 295 333 302 301 282 271 208 227 250 250 263 279 288 287 278 299 303 293 301 244 131 134 128 123 142 128 72 354 353 334 322 330 328
279 265 265 276 255 270 307 291 324 319 313 303 276 285 291 291 332 175 197 243 270 309 351 345 336 316 306 319 110 135 132 138 137 143 137 116 174 267 334 336 335 339 331
278 267 251 247 246 267 252 227 236 308 296 305 299 270 148 308 306 298 293 191 220 294 356 352 3 27 43 73 115 130 127 129 137 134 128 134 94 32 343 348 330 343 338
263 255 253 246 241 241 207 232 229 261 293 317 307 304 289 265 248 258 285 291 175 62 29 9 19 50 64 88 98 111 113 118 121 100 86 90 66 13 3 336 331 332 330
283 253 239 246 242 239 232 229 220 231 291 299 307 306 288 289 270 263 286 288 303 67 42 36 43 62 82 97 106 115 111 108 99 94 87 71 42 17 347 341 332 339 331
283 285 257 242 238 232 234 231 224 244 254 288 293 304 298 296 289 280 259 278 279 260 115 61 78 98 95 102 114 117 113 109 109 102 90 75 50 26 2 353 349 334 334
292 293 286 258 240 243 226 223 236 239 257 264 285 286 295 294 289 279 277 272 282 216 178 126 93 108 115 117 132 118 119 112 108 101 88 65 52 33 21 10 350 345 356
275 270 279 270 246 238 232 231 240 249 261 256 273 273 276 292 290 281 271 277 256 271 226 150 140 135 133 131 126 123 125 123 111 97 87 70 49 32 25 13 8 7 359
277 277 275 264 248 232 230 227 244 239 248 262 269 278 280 287 288 271 259 254 255 249 268 152 156 149 144 127 139 132 124 121 112 99 78 59 46 34 27 21 14 10 3
282 273 268 267 237 235 224 235 243 256 256 259 263 266 274 278 276 271 259 254 255 248 249 77 87 147 138 141 139 140 128 119 115 93 76 58 52 38 32 26 23 14 7
277 277 286 270 248 241 229 234 244 251 254 252 254 259 266 273 274 257 254 258 264 246 198 142 147 155 149 147 143 133 143 119 111 101 82 69 60 45 32 32 28 23 18
281 275 281 273 271 254 248 248 250 250 249 252 253 254 258 261 259 258 256 262 246 213 153 148 138 148 144 150 138 135 131 120 110 117 112 87 63 44 40 33 29 29 18
280 275 264 261 268 276 273 258 253 250 248 247 249 254 258 255 254 253 247 238 249 200 137 141 146 143 144 144 147 145 132 122 129 90 78 84 78 65 44 30 29 29 20
276 273 268 254 242 239 246 248 258 253 250 248 248 251 248 248 253 244 254 259 250 149 147 148 142 148 153 161 169 149 133 126 176 223 161 132 75 42 40 42 30 28 24
272 271 275 272 265 258 256 235 240 256 256 253 254 256 253 247 248 257 255 262 264 162 157 155 160 170 166 154 168 155 134 147 170 211 127 104 91 67 56 42 35 32 27
265 271 266 257 264 262 259 214 202 237 250 255 257 257 248 240 225 239 224 233 234 191 165 170 174 178 166 164 144 153 152 182 170 137 137 120 112 89 70 60 42 37 34
261 261 265 259 250 252 231 240 221 245 255 255 253 249 242 240 241 247 233 234 208 181 178 182 177 161 150 147 141 145 178 196 122 140 131 113 111 90 94 110 54 43 38
264 260 265 261 265 266 237 218 216 253 249 247 244 242 243 246 239 242 254 177 154 154 132 128 122 119 131 132 138 155 210 158 142 147 148 131 108 107 96 52 54 62 50
273 266 259 253 256 264 254 217 213 251 251 246 242 243 226 237 209 220 206 156 139 128 120 111 107 107 121 131 159 193 167 157 140 143 130 129 152 191 123 57 39 30 45